Flight Track Log - Related Links

Times and Time Zones

All times are in EDT time to prevent confusion due to time zone crossing. See the AAY813 flight status page for this flight to view local times or setup timezone preferences in your user account.

Time Position Orientation Groundspeed Altitude Reporting Facility
EDT Latitude Longitude Course Direction KTS MPH feet Rate Location/Type
12:13PM 37.2758 -80.0786 206° Southwest 202 232 4,300  Level Washington Center
12:14PM 37.2517 -80.1633 250° West 231 266 7,100 2,723 Climbing Washington Center
12:15PM 37.2253 -80.2556 250° West 262 302 9,700 2,132 Climbing Washington Center
12:16PM 37.1914 -80.3708 250° West 301 346 11,400 1,934 Climbing Washington Center
12:17PM 37.1533 -80.4883 248° West 341 392 13,600 2,178 Climbing Washington Center
12:18PM 37.0265 -80.7351 206° Southwest  Level FlightAware Approximate
12:18PM 37.1122 -80.6372 251° West 368 423 16,300  Level Atlanta Center
12:19PM 37.0336 -80.7342 225° Southwest 387 445 18,000 2,000 Climbing Atlanta Center
12:20PM 36.9206 -80.8011 205° Southwest 410 472 20,300 2,000 Climbing Atlanta Center
12:21PM 36.8139 -80.8625 205° Southwest 410 472 22,000 1,750 Climbing Atlanta Center
12:22PM 36.7089 -80.9186 203° Southwest 415 478 23,800 1,000 Climbing Atlanta Center
12:23PM 36.6044 -80.9900 209° Southwest 421 484 24,000 100 Climbing Atlanta Center
12:24PM 36.5017 -81.0506 205° Southwest 421 484 24,000  Level Atlanta Center
12:25PM 36.3947 -81.1164 206° Southwest 426 490 24,000  Level Atlanta Center
12:26PM 36.2919 -81.1819 207° Southwest 420 483 24,000  Level Atlanta Center
12:27PM 36.1994 -81.2367 206° Southwest 420 483 24,000  Level Atlanta Center
12:28PM 36.0925 -81.2994 205° Southwest 420 483 24,000  Level Atlanta Center
12:29PM 35.9875 -81.3672 208° Southwest 420 483 24,000  Level Atlanta Center
12:30PM 35.8844 -81.4297 206° Southwest 420 483 24,000  Level Atlanta Center
12:31PM 35.7794 -81.4919 206° Southwest 420 483 24,000  Level Atlanta Center
12:32PM 35.6764 -81.5514 205° Southwest 420 483 24,000  Level Atlanta Center
12:33PM 35.5711 -81.6158 206° Southwest 420 483 24,000  Level Atlanta Center
12:34PM 35.4661 -81.6775 206° Southwest 420 483 24,000  Level Atlanta Center
12:35PM 35.3564 -81.7264 200° South 420 483 24,000  Level Atlanta Center
12:36PM 35.2400 -81.7475 188° South 420 483 24,000  Level Atlanta Center
12:37PM 35.1303 -81.7939 199° South 425 489 24,000  Level Atlanta Center
12:38PM 35.0247 -81.8475 203° Southwest 425 489 24,000  Level Atlanta Center
12:39PM 34.9131 -81.9008 201° Southwest 430 495 24,000  Level Atlanta Center
12:40PM 34.8075 -81.9517 202° Southwest 423 487 24,000  Level Atlanta Center
12:41PM 34.6978 -82.0025 201° Southwest 423 487 24,000  Level Atlanta Center
12:42PM 34.5900 -82.0556 202° Southwest 423 487 24,000  Level Atlanta Center
12:43PM 34.4803 -82.1061 201° Southwest 423 487 24,000  Level Atlanta Center
12:44PM 34.3706 -82.1614 203° Southwest 428 493 24,000  Level Atlanta Center
12:45PM 34.2608 -82.2142 202° Southwest 428 493 24,000  Level Atlanta Center
12:46PM 34.1508 -82.2692 202° Southwest 428 493 24,000  Level Atlanta Center
12:47PM 34.0244 -82.3294 202° Southwest 447 514 24,000  Level Atlanta Center
12:48PM 33.9167 -82.3842 203° Southwest 436 502 24,000  Level Atlanta Center
12:49PM 33.8172 -82.4336 202° Southwest 429 494 24,000  Level Atlanta Center
12:50PM 33.7031 -82.4881 202° Southwest 434 499 24,000  Level Atlanta Center
12:51PM 33.5908 -82.5375 200° South 441 507 24,000  Level Atlanta Center
12:52PM 33.4789 -82.5894 201° Southwest 441 507 24,000  Level Atlanta Center
12:53PM 33.3625 -82.6286 196° South 441 507 24,000  Level Atlanta Center
12:54PM 33.2333 -82.6631 193° South 436 502 24,000  Level Atlanta Center
12:55PM 33.1144 -82.6772 186° South 431 496 24,000  Level Atlanta Center
12:56PM 33.0017 -82.6692 177° South 437 503 24,000  Level Atlanta Center
12:57PM 32.8786 -82.6611 177° South 442 509 24,000  Level Atlanta Center
12:58PM 32.7575 -82.6556 178° South 442 509 24,000  Level Atlanta Center
12:59PM 32.6364 -82.6525 179° South 442 509 24,000  Level Atlanta Center
01:00PM 32.5172 -82.6494 179° South 437 503 24,000  Level Atlanta Center
01:01PM 32.3919 -82.6417 177° South 442 509 24,000  Level Atlanta Center
01:04PM 32.0994 -82.6253 177° South 440 506 24,000  Level Jacksonville Center
01:05PM 31.9761 -82.6208 178° South 442 509 24,000  Level Jacksonville Center
01:06PM 31.8553 -82.6136 177° South 442 509 24,000  Level Jacksonville Center
01:07PM 31.7297 -82.6092 178° South 442 509 24,000  Level Jacksonville Center
01:08PM 31.6317 -82.6047 178° South 442 509 24,000  Level Jacksonville Center
01:09PM 31.4981 -82.5978 177° South 442 509 24,000  Level Jacksonville Center
01:10PM 31.3747 -82.5908 177° South 442 509 24,000  Level Jacksonville Center
01:11PM 31.2411 -82.5889 179° South 442 509 24,000  Level Jacksonville Center
01:12PM 31.1181 -82.5844 178° South 442 509 24,000  Level Jacksonville Center
01:13PM 30.9969 -82.5775 177° South 442 509 24,000  Level Jacksonville Center
01:14PM 30.8736 -82.5731 178° South 442 509 24,000  Level Jacksonville Center
01:15PM 30.7547 -82.5661 177° South 442 509 24,000 -400 Level Jacksonville Center
01:16PM 30.6314 -82.5617 178° South 442 509 23,200 -555 Descending Jacksonville Center
01:17PM 30.5144 -82.5550 177° South 437 503 22,900 -100 Descending Jacksonville Center
01:18PM 30.3975 -82.5336 171° South 437 503 23,000 50 Climbing Jacksonville Center
01:19PM 30.2783 -82.5053 168° South 432 497 23,000  Level Jacksonville Center
01:20PM 30.1614 -82.4842 171° South 432 497 23,000 -50 Level Jacksonville Center
01:21PM 30.0425 -82.4678 173° South 427 491 22,900  Descending Jacksonville Center
01:22PM 29.9358 -82.4492 171° South 427 491 23,000 50 Climbing Jacksonville Center
01:23PM 29.8167 -82.4306 172° South 427 491 23,000  Level Jacksonville Center
01:24PM 29.7113 -82.3865 166° South  Level FlightAware Approximate
01:24PM 29.6997 -82.4094 166° South 427 491 23,000  Level Jacksonville Center
01:25PM 29.5703 -82.3886 172° South 427 491 23,000 -101 Level Jacksonville Center
01:26PM 29.4492 -82.3703 172° South 427 491 22,800 -1,008 Descending Jacksonville Center
01:27PM 29.3281 -82.3519 172° South 427 491 21,000 -1,750 Descending Jacksonville Center
01:28PM 29.2153 -82.3333 172° South 427 491 19,300 -1,600 Descending Jacksonville Center
01:29PM 29.1003 -82.3150 172° South 427 491 17,800 -1,600 Descending Jacksonville Center
01:30PM 28.9917 -82.2967 172° South 416 479 16,100 -1,650 Descending Jacksonville Center
01:31PM 28.8956 -82.2856 174° South 397 457 14,500 -1,051 Descending Jacksonville Center
01:32PM 28.7000 -82.2500 171° South 315 362 13,000 -607 Descending Tampa TRACON
01:33PM 28.6167 -82.2667 190° South 331 381 12,700 -709 Descending Tampa TRACON
01:35PM 28.5333 -82.3500 221° Southwest 360 414 11,500 -1,056 Descending Tampa TRACON
01:36PM 28.5000 -82.4500 249° West 358 412 10,500 -950 Descending Tampa TRACON
01:37PM 28.4500 -82.5333 236° Southwest 323 372 9,600 -991 Descending Tampa TRACON
01:37PM 28.4000 -82.6000 230° Southwest 299 344 8,600 -1,053 Descending Tampa TRACON
01:38PM 28.3500 -82.6667 230° Southwest 306 352 7,600 -1,333 Descending Tampa TRACON
01:40PM 28.2833 -82.7500 228° Southwest 297 342 5,800 -1,381 Descending Tampa TRACON
01:41PM 28.2167 -82.7833 204° Southwest 278 320 4,700 -1,000 Descending Tampa TRACON
01:42PM 28.1333 -82.7833 180° South 270 311 3,800 -900 Descending Tampa TRACON
01:43PM 28.0667 -82.7833 180° South 273 314 2,900 -900 Descending Tampa TRACON

Login

Don't have an account? Register now (free) for customized features, flight alerts, and more!